Weather History for KTYQ - May, 2014

Change the Weather History Date:

Saturday, May 3, 2014

  Actual Average (KEYE) Record (KEYE)
Temperature  
Mean Temperature 56 °F 59 °F  
Max Temperature 68 °F 68 °F 85 °F (2012)
Min Temperature 46 °F 49 °F 35 °F (2005)
Degree Days  
Heating Degree Days 8 7  
Month to date heating degree days 22  
Since 1 July heating degree days 5217  
Cooling Degree Days 0 1  
Month to date cooling degree days 3  
Year to date cooling degree days 18  
Growing Degree Days 6 (Base 50)    
Moisture  
Dew Point 35 °F    
Average Humidity 48    
Maximum Humidity 78    
Minimum Humidity 20    
Precipitation  
Precipitation 0.00 in 0.22 in 1.33 in (1993)
Month to date precipitation 0.65  
Year to date precipitation 12.19  
Sea Level Pressure  
Sea Level Pressure 29.84 in    
Wind  
Wind Speed 12 mph (WSW)    
Max Wind Speed 24 mph    
Max Gust Speed 33 mph    
Visibility 10 miles    
Events Rain    
T = Trace of Precipitation, MM = Missing Value Source: NWS Daily Summary

Daily Weather History Graph

Daily Weather History Graph

Search for Another Location

Airport or City:

Trip Planner

Search our weather history database for the weather conditions in past years. The results will help you decide how hot, cold, wet, or windy it might be!

Date:

Astronomy

May. 03, 2014 Rise Set
Actual Time 6:42 AM EDT 8:41 PM EDT
Civil Twilight 6:13 AM EDT 9:11 PM EDT
Nautical Twilight 5:37 AM EDT 9:47 PM EDT
Astronomical Twilight 4:58 AM EDT 10:26 PM EDT
Moon 10:11 AM EDT (5/3) 12:02 AM EDT (5/3)
Length of Visible Light 14h 58m
Length of Day
13h 59m
Waxing Crescent, 19% of the Moon is Illuminated
May 3
Waxing Crescent
May 6
First Quarter
May 14
Full
May 21
Last Quarter
May 28
New

Hourly Weather History & Observations

Time (EDT) Temp. Dew Point Humidity Pressure Visibility Wind Dir Wind Speed Gust Speed Precip Events Conditions
12:15 AM 49.1 °F 40.3 °F 72% 29.87 in 10.0 mi SSW 8.1 mph - N/A   Overcast
12:35 AM 48.7 °F 40.3 °F 73% 29.86 in 10.0 mi SSW 8.1 mph - N/A   Overcast
12:55 AM 48.9 °F 40.8 °F 74% 29.86 in 10.0 mi SSW 8.1 mph - N/A Rain Light Rain
1:15 AM 47.8 °F 41.2 °F 78% 29.85 in 10.0 mi SSW 10.4 mph - N/A   Overcast
1:35 AM 47.8 °F 41.4 °F 78% 29.85 in 10.0 mi SSW 9.2 mph - N/A Rain Light Rain
1:55 AM 47.7 °F 41.0 °F 78% 29.84 in 10.0 mi SSW 10.4 mph - N/A   Overcast
2:15 AM 47.8 °F 41.0 °F 77% 29.84 in 10.0 mi SSW 8.1 mph - N/A   Overcast
2:35 AM 47.3 °F 40.1 °F 76% 29.83 in 10.0 mi South 8.1 mph - N/A   Mostly Cloudy
2:55 AM 47.3 °F 40.1 °F 76% 29.81 in 10.0 mi South 9.2 mph - N/A   Mostly Cloudy
3:15 AM 47.3 °F 39.7 °F 75% 29.81 in 10.0 mi SSW 10.4 mph - N/A   Overcast
3:35 AM 47.7 °F 39.4 °F 73% 29.80 in 10.0 mi SSW 10.4 mph - N/A   Mostly Cloudy
3:55 AM 47.8 °F 39.4 °F 72% 29.79 in 10.0 mi South 10.4 mph - N/A Rain Light Rain
4:15 AM 47.5 °F 39.0 °F 72% 29.79 in 10.0 mi South 9.2 mph - N/A   Mostly Cloudy
4:35 AM 46.9 °F 38.8 °F 73% 29.79 in 10.0 mi SSW 9.2 mph - N/A   Scattered Clouds
4:55 AM 47.7 °F 38.8 °F 71% 29.78 in 10.0 mi South 10.4 mph - N/A   Scattered Clouds
5:15 AM 48.7 °F 38.8 °F 69% 29.77 in 10.0 mi SSW 16.1 mph - N/A   Mostly Cloudy
5:35 AM 49.1 °F 38.7 °F 67% 29.77 in 10.0 mi SSW 13.8 mph - N/A   Overcast
5:55 AM 49.1 °F 38.3 °F 66% 29.77 in 10.0 mi SSW 10.4 mph 18.4 mph N/A   Mostly Cloudy
6:15 AM 48.9 °F 38.3 °F 67% 29.77 in 10.0 mi SW 11.5 mph - N/A   Scattered Clouds
6:35 AM 48.4 °F 38.3 °F 68% 29.78 in 10.0 mi SW 11.5 mph - N/A   Scattered Clouds
6:55 AM 48.2 °F 38.3 °F 69% 29.78 in 10.0 mi SW 11.5 mph - N/A   Clear
7:15 AM 48.0 °F 38.3 °F 69% 29.78 in 10.0 mi SW 9.2 mph - N/A   Clear
7:35 AM 49.3 °F 38.7 °F 67% 29.78 in 10.0 mi SW 10.4 mph - N/A   Clear
7:55 AM 50.5 °F 39.2 °F 65% 29.78 in 10.0 mi SW 13.8 mph - N/A   Clear
8:15 AM 52.2 °F 39.2 °F 61% 29.78 in 10.0 mi SW 17.3 mph 21.9 mph N/A   Clear
8:35 AM 52.9 °F 39.7 °F 61% 29.79 in 10.0 mi WSW 18.4 mph 24.2 mph N/A   Clear
8:55 AM 54.0 °F 40.1 °F 59% 29.79 in 10.0 mi WSW 16.1 mph - N/A   Clear
9:15 AM 54.7 °F 39.7 °F 57% 29.79 in 10.0 mi West 17.3 mph 26.5 mph N/A   Clear
9:35 AM 55.6 °F 40.8 °F 58% 29.80 in 10.0 mi West 16.1 mph 23.0 mph N/A   Clear
9:55 AM 56.5 °F 40.6 °F 55% 29.80 in 10.0 mi West 16.1 mph 23.0 mph N/A   Clear
10:15 AM 57.6 °F 40.8 °F 54% 29.80 in 10.0 mi West 16.1 mph 21.9 mph N/A   Clear
10:35 AM 59.2 °F 40.8 °F 51% 29.80 in 10.0 mi West 19.6 mph 27.6 mph N/A   Clear
10:55 AM 58.8 °F 39.4 °F 49% 29.81 in 10.0 mi West 20.7 mph 29.9 mph N/A   Clear
11:15 AM 59.2 °F 39.2 °F 48% 29.82 in 10.0 mi West 19.6 mph 27.6 mph N/A   Clear
11:35 AM 59.0 °F 39.4 °F 48% 29.83 in 10.0 mi WNW 16.1 mph 26.5 mph N/A   Clear
12:15 PM 61.0 °F 35.1 °F 38% 29.84 in 10.0 mi West 24.2 mph 29.9 mph N/A   Clear
12:35 PM 61.3 °F 34.0 °F 36% 29.85 in 10.0 mi WNW 21.9 mph 29.9 mph N/A   Clear
12:55 PM 62.1 °F 34.5 °F 36% 29.86 in 10.0 mi West 13.8 mph 31.1 mph N/A   Scattered Clouds
1:15 PM 62.6 °F 32.4 °F 32% 29.86 in 10.0 mi West 19.6 mph 28.8 mph N/A   Clear
1:35 PM 63.0 °F 30.4 °F 29% 29.86 in 10.0 mi WNW 17.3 mph 31.1 mph N/A   Clear
1:55 PM 64.6 °F 32.5 °F 30% 29.86 in 10.0 mi West 18.4 mph 27.6 mph N/A   Clear
2:15 PM 64.6 °F 30.7 °F 28% 29.86 in 10.0 mi WNW 19.6 mph 33.4 mph N/A   Clear
2:35 PM 65.3 °F 30.4 °F 27% 29.86 in 10.0 mi WNW 19.6 mph 28.8 mph N/A   Clear
2:55 PM 66.2 °F 29.5 °F 25% 29.86 in 10.0 mi West 21.9 mph 28.8 mph N/A   Clear
3:15 PM 66.2 °F 27.5 °F 23% 29.86 in 10.0 mi West 19.6 mph 31.1 mph N/A   Clear
3:35 PM 66.6 °F 26.2 °F 22% 29.86 in 10.0 mi West 17.3 mph 25.3 mph N/A   Clear
3:55 PM 66.7 °F 26.6 °F 22% 29.87 in 10.0 mi West 21.9 mph 28.8 mph N/A   Clear
4:15 PM 67.5 °F 27.0 °F 22% 29.87 in 10.0 mi WNW 18.4 mph 27.6 mph N/A   Clear
4:35 PM 67.1 °F 24.8 °F 20% 29.87 in 10.0 mi West 12.7 mph 27.6 mph N/A   Clear
4:55 PM 67.5 °F 25.3 °F 20% 29.87 in 10.0 mi West 17.3 mph 23.0 mph N/A   Clear
5:15 PM 67.5 °F 26.4 °F 21% 29.87 in 10.0 mi West 13.8 mph 29.9 mph N/A   Clear
5:35 PM 67.5 °F 27.5 °F 22% 29.87 in 10.0 mi West 19.6 mph 24.2 mph N/A   Clear
5:55 PM 67.6 °F 28.2 °F 23% 29.88 in 10.0 mi West 17.3 mph 24.2 mph N/A   Clear
6:15 PM 66.6 °F 26.8 °F 22% 29.88 in 10.0 mi West 18.4 mph 26.5 mph N/A   Clear
6:35 PM 66.6 °F 25.7 °F 21% 29.89 in 10.0 mi West 16.1 mph 23.0 mph N/A   Clear
6:55 PM 66.4 °F 27.1 °F 23% 29.89 in 10.0 mi West 11.5 mph 21.9 mph N/A   Clear
7:15 PM 66.0 °F 26.8 °F 23% 29.89 in 10.0 mi West 18.4 mph 25.3 mph N/A   Clear
7:35 PM 65.7 °F 27.0 °F 23% 29.89 in 10.0 mi West 12.7 mph - N/A   Clear
7:55 PM 64.8 °F 27.9 °F 25% 29.90 in 10.0 mi West 9.2 mph - N/A   Clear
8:15 PM 63.7 °F 28.2 °F 26% 29.90 in 10.0 mi West 10.4 mph 16.1 mph N/A   Clear
8:35 PM 62.1 °F 28.6 °F 28% 29.91 in 10.0 mi WSW 8.1 mph - N/A   Clear
8:55 PM 60.8 °F 28.9 °F 30% 29.91 in 10.0 mi West 8.1 mph - N/A   Clear
9:15 PM 59.7 °F 29.7 °F 32% 29.91 in 10.0 mi WSW 5.8 mph - N/A   Clear
9:35 PM 55.8 °F 32.0 °F 41% 29.91 in 10.0 mi WSW 6.9 mph - N/A   Clear
9:55 PM 55.4 °F 32.0 °F 41% 29.91 in 10.0 mi WSW 5.8 mph - N/A   Clear
10:15 PM 53.6 °F 32.4 °F 44% 29.91 in 10.0 mi SW 6.9 mph - N/A   Clear
10:35 PM 53.2 °F 32.4 °F 45% 29.91 in 10.0 mi SW 8.1 mph - N/A   Clear
10:55 PM 52.9 °F 33.3 °F 47% 29.92 in 10.0 mi SW 8.1 mph - N/A   Clear
11:15 PM 53.8 °F 33.8 °F 47% 29.91 in 10.0 mi SW 9.2 mph - N/A   Clear
11:35 PM 54.5 °F 34.0 °F 46% 29.91 in 10.0 mi SW 9.2 mph - N/A   Clear
11:55 PM 54.5 °F 34.5 °F 47% 29.92 in 10.0 mi SW 8.1 mph - N/A   Clear